CZ-6A DEB, 54518

Orbit data source: Space-Track

CZ-6A DEB, 54518 is space debris in SSO originally from a launch on Fri, 11 Nov 2022 UTC launched from the Taiyaun Space Center, China (TSC). Debris objects in space refer to the collection of defunct objects orbiting the Earth. Examples of debris include non-operational satellites, rocket bodies, and fragments generated from explosions, collisions, or faulty payload assembly.

Loading next visibility...
Identifier
54518, 2022-151JW
Orbit
SSO
Country
Flag of CNCN / PRC
Related business
Manufacturer
SAST
Mission
Spacecraft
Bus & Motor
Unknown
Mass
Unknown
Launch date (UTC)
2022-11-11 (3 years ago)
Launch vehicle
Unknown
Launch site
Taiyaun Space Center, China (TSC)
Object type
Payload
Rocket body
Debris
Shape & HBR
Unknown shape, 0.1 m
Radar Cross Section
Small (<0.1 m²)

Expand to show TLE details & history
Last TLE update: 8 hours ago

TLE from 8 hours ago
0 CZ-6A DEB
1 54518U 22151JW  25355.36131512  .00000836  00000-0  31748-3 0  9999
2 54518  98.7930  28.5062 0125777 274.7429  83.9399 14.29551885161689
Epoch: 2025-12-21T08:40Z
TLE epoch observation values (Epoch: 2025-12-21T08:40:17.626Z)
Latitude
Longitude
168.25789°
Altitude
787.754 km
Speed
7.464 km/s
True Right ascension
01h 54m 01s
True Declination
0° 00' 00"
Sunlit
Object was in daylight at epoch
Visualization orbit readout
Latitude
Unknown
Longitude
Unknown
Altitude
Unknown
Speed
Unknown
Apparent Right ascension
Unknown
Apparent Declination
Unknown
Sunlit
N/A
Visualization observer readout
Local Sidereal Time
15:45:31
Azimuth
Unknown
Elevation
Unknown
Doppler factor
Unknown
Orbital elements
Apogee altitude
880.542 km
Perigee altitude
700.215 km
Semi-major axis
7,168.515 km
Eccentricity
0.01258
Inclination
98.793°
RAAN
28.5062°
Arg. of periapsis
274.7429°
True anomaly
85.37538°
Mean anomaly
83.9399°
Eccentric anomaly
84.65742°
Mean motion
3.57602 °/min
Orbital period
100.67 mins
BSTAR
0.00031748
Loading maneuver chart data...
Computing Atmospheric mass density...
Loading historical data...
Loading historical data...
Loading historical data...
Loading historical data...
Loading historical data...
Loading historical data...
Loading historical data...

Documentation

Showing up to 5 results
|